Terminal Aerodrome Forecast
Issued by NWS North Platte, NE

Home | Current Version | Previous Version | Text Only | Print | Product List | Glossary On
Versions: 1 2 3 4 5 6 7 8 9 10 11 12 13 14 15 16 17 18 19 20 21 22 23
000
FTUS43 KLBF 041700
TAFVTN
TAF
KVTN 041722Z 0418/0518 17014G22KT P6SM SCT100
     FM042200 16013G19KT P6SM VCTS BKN050CB BKN150
     FM050300 15011KT P6SM SCT100=

USA.gov is the U.S. government's official web portal to all federal, state and local government web resources and services.